KA2FNK Weather Reports


time (UTC)temp
F
wind
direction
speed
knots
gust
knots
rain 1hr
in
rain 24hr
in
rain mn
in
humidity
%
barometer
mb
20260505041641 71 5 0.0 2.6 0.00 0.00 0.00 65 1003.5
20260505041140 71 338 0.0 3.5 0.00 0.00 0.00 65 1003.5
20260505040639 71 327 0.9 3.5 0.00 0.00 0.00 66 1003.6
20260505040138 71 191 0.0 0.9 0.00 0.00 0.00 66 1003.3
20260505035637 72 154 0.0 5.2 0.00 0.00 0.00 64 1003.0
20260505035136 72 111 0.0 7.0 0.00 0.00 0.00 64 1003.0
20260505034635 72 203 3.5 8.7 0.00 0.00 0.00 64 1003.0
20260505034134 72 82 0.0 5.2 0.00 0.00 0.00 64 1003.0
20260505033633 72 196 0.0 5.2 0.00 0.00 0.00 64 1003.0
20260505033132 71 191 0.9 4.3 0.00 0.00 0.00 64 1003.0
20260505032631 71 136 0.0 0.0 0.00 0.00 0.00 63 1003.1
20260505032130 71 136 0.0 3.5 0.00 0.00 0.00 62 1002.9
20260505031629 71 184 0.0 0.0 0.00 0.00 0.00 63 1002.9
20260505031128 71 240 0.0 0.9 0.00 0.00 0.00 62 1002.8
20260505030627 70 240 0.0 0.0 0.00 0.00 0.00 62 1002.8
20260505030126 70 240 0.0 0.0 0.00 0.00 0.00 61 1002.7
20260505025625 70 240 0.0 0.0 0.00 0.00 0.00 61 1002.7
20260505025124 70 240 0.0 0.0 0.00 0.00 0.00 61 1002.7
20260505024623 70 240 0.0 0.0 0.00 0.00 0.00 61 1002.6
20260505024122 70 240 0.0 0.0 0.00 0.00 0.00 61 1002.5
20260505023621 70 240 0.0 0.0 0.00 0.00 0.00 60 1002.5
20260505023120 70 240 0.0 0.0 0.00 0.00 0.00 60 1002.5
20260505022619 70 240 0.0 0.0 0.00 0.00 0.00 60 1002.3
20260505022118 70 240 0.0 0.0 0.00 0.00 0.00 60 1002.2
20260505021617 70 240 0.0 0.0 0.00 0.00 0.00 59 1002.1
20260505021116 71 240 0.0 0.0 0.00 0.00 0.00 59 1002.1
20260505020615 71 240 0.0 0.0 0.00 0.00 0.00 58 1002.1
20260505020114 71 240 0.0 0.0 0.00 0.00 0.00 58 1002.0
20260505015613 71 240 0.0 0.0 0.00 0.00 0.00 58 1001.9
20260505015112 72 240 0.0 0.0 0.00 0.00 0.00 56 1001.9
20260505014611 72 240 0.0 0.0 0.00 0.00 0.00 56 1001.8
20260505014110 72 240 0.0 0.0 0.00 0.00 0.00 56 1001.7
20260505013609 73 240 0.0 0.0 0.00 0.00 0.00 55 1001.6
20260505013108 73 240 0.0 0.0 0.00 0.00 0.00 54 1001.6
20260505012607 73 240 0.0 0.0 0.00 0.00 0.00 53 1001.6
20260505012106 74 240 0.0 0.0 0.00 0.00 0.00 52 1001.6
20260505011605 74 240 0.0 0.0 0.00 0.00 0.00 52 1001.6
20260505011104 75 240 0.0 0.0 0.00 0.00 0.00 52 1001.5
20260505010603 75 240 0.0 0.0 0.00 0.00 0.00 51 1001.4
20260505005601 76 240 0.0 0.0 0.00 0.00 0.00 50 1001.3
20260505005100 76 240 0.0 0.0 0.00 0.00 0.00 49 1001.2
20260505004559 77 240 0.0 0.0 0.00 0.00 0.00 48 1001.2
20260505004058 77 240 0.0 0.0 0.00 0.00 0.00 47 1001.2
20260505003557 77 240 0.0 0.0 0.00 0.00 0.00 47 1001.0
20260505003056 78 240 0.0 0.0 0.00 0.00 0.00 47 1001.0
20260505002555 78 240 0.0 0.0 0.00 0.00 0.00 47 1001.0
20260505002055 78 240 0.0 0.0 0.00 0.00 0.00 47 1001.0
20260505001553 78 240 0.0 0.0 0.00 0.00 0.00 46 1001.0
20260505001053 78 240 0.0 0.0 0.00 0.00 0.00 46 1001.0
20260505000552 78 240 0.0 0.0 0.00 0.00 0.00 45 1001.0
20260505000051 78 240 0.0 0.0 0.00 0.00 0.00 44 1001.0
20260504235549 79 240 0.0 0.0 0.00 0.00 0.00 44 1001.0
20260504235048 79 240 0.0 0.0 0.00 0.00 0.00 43 1001.0
20260504234547 79 240 0.0 0.0 0.00 0.00 0.00 42 1001.0
20260504234046 79 240 0.0 0.0 0.00 0.00 0.00 43 1001.0
20260504233545 79 240 0.0 2.6 0.00 0.00 0.00 41 1001.2
20260504233044 79 293 0.0 0.0 0.00 0.00 0.00 41 1001.2
20260504232543 79 293 0.0 0.0 0.00 0.00 0.00 41 1001.0
20260504232042 80 293 0.0 0.0 0.00 0.00 0.00 40 1001.2
20260504231541 80 293 0.0 0.9 0.00 0.00 0.00 40 1001.0
20260504231041 80 210 7.0 7.0 0.00 0.00 0.00 40 1001.2
20260504230539 80 227 0.0 4.3 0.00 0.00 0.00 39 1001.2
20260504230038 80 225 0.0 0.0 0.00 0.00 0.00 40 1001.2
20260504225537 80 225 0.0 6.1 0.00 0.00 0.00 39 1001.2
20260504225037 80 196 0.0 0.0 0.00 0.00 0.00 39 1001.2
20260504224535 80 196 0.0 2.6 0.00 0.00 0.00 40 1001.0
20260504224034 80 241 0.0 1.7 0.00 0.00 0.00 40 1001.2
20260504223533 80 171 0.0 0.0 0.00 0.00 0.00 40 1001.2
20260504223032 80 171 0.0 1.7 0.00 0.00 0.00 42 1001.2
20260504222531 79 212 0.0 1.7 0.00 0.00 0.00 42 1001.2
20260504222030 79 220 0.0 0.0 0.00 0.00 0.00 43 1001.3
20260504221529 79 220 0.0 4.3 0.00 0.00 0.00 42 1001.4
20260504221028 79 239 0.0 5.2 0.00 0.00 0.00 42 1001.3
20260504220528 79 191 0.0 5.2 0.00 0.00 0.00 41 1001.3
20260504220026 79 254 0.0 11.3 0.00 0.00 0.00 44 1001.4
20260504215525 79 217 2.6 7.0 0.00 0.00 0.00 43 1001.4
20260504215024 79 240 2.6 8.7 0.00 0.00 0.00 42 1001.5
20260504214701 79 270 4.3 7.8 0.00 0.00 0.00 42 1001.5
20260504214523 79 270 4.3 7.8 0.00 0.00 0.00 42 1001.5
20260504214400 80 171 3.5 10.4 0.00 0.00 0.00 41 1001.5
20260504214022 80 270 0.9 8.7 0.00 0.00 0.00 42 1001.5
20260504213521 80 171 3.5 10.4 0.00 0.00 0.00 41 1001.5
20260504213020 80 206 2.6 2.6 0.00 0.00 0.00 43 1001.5
20260504212519 80 264 0.0 7.0 0.00 0.00 0.00 42 1001.5
20260504212018 80 177 2.6 10.4 0.00 0.00 0.00 41 1001.5
20260504211517 80 212 1.7 9.6 0.00 0.00 0.00 39 1001.5
20260504211016 81 232 0.9 17.4 0.00 0.00 0.00 41 1001.4
20260504210515 81 213 5.2 11.3 0.00 0.00 0.00 39 1001.4
20260504210014 82 164 0.9 12.2 0.00 0.00 0.00 38 1001.5
20260504205513 82 216 0.0 5.2 0.00 0.00 0.00 35 1001.6
20260504205012 82 270 0.0 0.0 0.00 0.00 0.00 38 1001.6
20260504204511 82 270 0.0 4.3 0.00 0.00 0.00 35 1001.7
20260504204010 82 260 1.7 7.0 0.00 0.00 0.00 33 1001.7
20260504203509 82 225 0.0 5.2 0.00 0.00 0.00 35 1001.9
20260504203008 82 213 0.0 6.1 0.00 0.00 0.00 35 1001.8
20260504202507 82 104 0.0 6.1 0.00 0.00 0.00 38 1001.8
20260504202006 82 180 0.0 4.3 0.00 0.00 0.00 39 1001.9
20260504201505 82 227 0.0 6.1 0.00 0.00 0.00 40 1001.9
20260504201004 82 191 0.0 8.7 0.00 0.00 0.00 38 1001.9
20260504200503 82 187 6.1 9.6 0.00 0.00 0.00 36 1001.9
20260504200002 82 206 1.7 1.7 0.00 0.00 0.00 36 1002.0
20260504195502 82 188 0.9 5.2 0.00 0.00 0.00 36 1002.0
20260504195000 81 184 0.0 6.1 0.00 0.00 0.00 38 1002.0
20260504194459 81 230 0.0 7.8 0.00 0.00 0.00 37 1002.0
20260504193958 81 253 2.6 7.8 0.00 0.00 0.00 38 1002.0
20260504193457 81 167 0.0 5.2 0.00 0.00 0.00 38 1002.0
20260504192957 81 253 0.0 5.2 0.00 0.00 0.00 38 1002.0
20260504192455 81 195 0.0 13.0 0.00 0.00 0.00 39 1002.0
20260504191954 80 323 1.7 7.0 0.00 0.00 0.00 40 1002.1
20260504191453 80 191 0.0 3.5 0.00 0.00 0.00 41 1002.1
20260504190952 80 157 0.0 2.6 0.00 0.00 0.00 41 1002.2
20260504190451 80 232 2.6 7.0 0.00 0.00 0.00 39 1002.3
20260504185950 80 264 2.6 8.7 0.00 0.00 0.00 39 1002.3
20260504185449 80 229 1.7 8.7 0.00 0.00 0.00 42 1002.3
20260504184948 79 181 0.0 8.7 0.00 0.00 0.00 40 1002.3
20260504184447 79 217 0.0 7.0 0.00 0.00 0.00 42 1002.3
20260504183946 79 253 0.0 7.8 0.00 0.00 0.00 42 1002.3
20260504183446 79 227 3.5 9.6 0.00 0.00 0.00 39 1002.4
20260504182945 79 244 0.0 0.9 0.00 0.00 0.00 42 1002.4
20260504182443 78 274 1.7 3.5 0.00 0.00 0.00 42 1002.4
20260504181942 78 191 0.0 7.8 0.00 0.00 0.00 42 1002.5
20260504181441 78 185 1.7 5.2 0.00 0.00 0.00 41 1002.5
20260504180940 78 274 0.0 7.8 0.00 0.00 0.00 41 1002.5
20260504180439 78 165 3.5 9.6 0.00 0.00 0.00 43 1002.5
20260504175939 78 268 0.0 7.8 0.00 0.00 0.00 41 1002.7
20260504175437 78 270 0.0 5.2 0.00 0.00 0.00 43 1002.7
20260504174936 78 217 0.0 7.8 0.00 0.00 0.00 43 1002.8
20260504174435 77 232 0.0 7.0 0.00 0.00 0.00 43 1002.7
20260504173934 78 180 7.0 10.4 0.00 0.00 0.00 43 1002.7
20260504173433 78 217 2.6 9.6 0.00 0.00 0.00 40 1002.8
20260504172933 77 147 0.0 10.4 0.00 0.00 0.00 44 1002.9
20260504172432 77 227 3.5 6.1 0.00 0.00 0.00 44 1002.8
20260504171931 77 185 10.4 11.3 0.00 0.00 0.00 45 1002.9
20260504171430 77 215 0.0 6.1 0.00 0.00 0.00 43 1003.0
20260504170929 77 262 2.6 9.6 0.00 0.00 0.00 41 1003.0
20260504170427 77 168 0.0 3.5 0.00 0.00 0.00 43 1003.0
20260504160415 73 226 0.0 11.3 0.00 0.00 0.00 46 1003.1
20260504150904 71 205 8.7 13.0 0.00 0.00 0.00 51 1003.2
20260504150403 70 251 1.7 6.1 0.00 0.00 0.00 52 1003.2
20260504140853 67 265 4.3 6.1 0.00 0.00 0.00 55 1003.5
20260504140351 67 243 4.3 8.7 0.00 0.00 0.00 54 1003.5
20260504130340 66 230 2.6 4.3 0.00 0.00 0.00 54 1003.2
20260504110315 63 192 6.1 7.8 0.00 0.00 0.00 57 1003.5
20260504100303 64 172 0.9 1.7 0.00 0.00 0.00 54 1004.4
20260504081742 64 216 1.7 5.2 0.00 0.00 0.00 56 1004.6
20260504081241 64 203 2.6 2.6 0.00 0.00 0.00 56 1004.7
20260504080740 64 226 0.0 0.0 0.00 0.00 0.00 56 1004.8
20260504080239 64 226 0.0 2.6 0.00 0.00 0.00 56 1004.8
20260504070227 66 233 0.9 5.2 0.00 0.00 0.00 51 1005.7
20260504060215 64 240 0.0 1.7 0.00 0.00 0.00 56 1006.5
20260504050704 64 189 0.0 0.0 0.00 0.00 0.00 62 1007.3
20260504050203 64 189 0.0 0.0 0.00 0.00 0.00 61 1007.3
20260504045702 65 189 0.0 0.0 0.00 0.00 0.00 60 1007.3
20260504045201 65 189 0.0 0.0 0.00 0.00 0.00 60 1007.2
20260504044700 65 189 0.0 0.0 0.00 0.00 0.00 60 1007.2
20260504044159 65 189 0.0 0.0 0.00 0.00 0.00 59 1007.3
20260504043658 65 189 0.0 0.0 0.00 0.00 0.00 57 1007.3
20260504043157 65 189 0.0 0.0 0.00 0.00 0.00 59 1007.3
20260504042656 65 189 0.0 0.0 0.00 0.00 0.00 59 1007.4
20260504042155 66 189 0.0 0.0 0.00 0.00 0.00 58 1007.4